Starlink 30209

operational
NORAD ID: 57307 Int'l Des: 2023-096 Owner: SPXS Country: US Constellation: starlink
LEOCIRCULAR

About Starlink 30209

Description loading...

Live Position

Loading 3D Globe...

Upcoming Passes

Altitude History

Altitude vs Time

uPlot chart will show altitude changes over time

Two-Line Element Set

1 57307U 23096T 25306.50002315 .00121478 00000-0 38201-2 0 9993
2 57307 42.9885 170.4598 0029313 231.2525 159.2727 15.31398462 5888
Epoch: Nov 2, 2025 • Age: 17 hours

Current Status

Altitude 491.8 km
Velocity 7.62 km/s
Sub-Earth Point 42.86°N, 123.77°E
Launch Date Jul 10, 2023
Age 2.3 years
Type internet

Technical Details

Classification Payload
Mass 730.00 kg
Dry Mass 700.00 kg
Total Mass 730.00 kg
Length 0.30 m
Diameter 4.10 m
Span 29.00 m
Shape Box + pan
Manufacturer SPXS
Bus Type Starlink V2M
Phase Status In Orbit
Owner/State SPXS/US

Large Constellations

Loading constellations...